,,Stat6,,Stat2,,Stat8,,Stat9,,Stat10,,Wind1,,Wind1,
time,status,PA1M_AVG,status,PR1M_SUM,status,RH1M_AVG,status,SR1M_AVG,status,TA1M_AVG,status,W1dAve1m,status,W1sAve1m,
2005-10-20, 00:00:00,VALID,918.333,VALID,0,VALID,100,VALID,0.0339617,VALID,19.1194,VALID,16,VALID,0,
2005-10-20, 00:01:00,VALID,918.305,VALID,0,VALID,100,VALID,0.0169808,VALID,19.1388,VALID,16,VALID,0,
2005-10-20, 00:02:00,VALID,918.298,VALID,0,VALID,100,VALID,0,VALID,19.1586,VALID,16,VALID,0,
2005-10-20, 00:03:00,VALID,918.278,VALID,0,VALID,100,VALID,0,VALID,19.181,VALID,16,VALID,0.162847,
2005-10-20, 00:04:00,VALID,918.26,VALID,0,VALID,100,VALID,0.0339617,VALID,19.1909,VALID,16,VALID,0.43564,
2005-10-20, 00:05:00,VALID,918.257,VALID,0,VALID,100,VALID,0.0169808,VALID,19.1812,VALID,16,VALID,0.177202,
2005-10-20, 00:06:00,VALID,918.253,VALID,0,VALID,100,VALID,0,VALID,19.1683,VALID,16,VALID,0.187863,
2005-10-20, 00:07:00,VALID,918.234,VALID,0,VALID,100,VALID,0,VALID,19.136,VALID,16,VALID,0.222942,
2005-10-20, 00:08:00,VALID,918.222,VALID,0,VALID,100,VALID,0,VALID,19.1134,VALID,16,VALID,0.266555,
2005-10-20, 00:09:00,VALID,918.207,VALID,0,VALID,100,VALID,0,VALID,19.094,VALID,16,VALID,0.00635901,
2005-10-20, 00:10:00,VALID,918.203,VALID,0,VALID,100,VALID,0,VALID,19.0873,VALID,16,VALID,0.104421,
2005-10-20, 00:11:00,VALID,918.187,VALID,0,VALID,100,VALID,0.0169808,VALID,19.1032,VALID,16,VALID,0.108648,
2005-10-20, 00:12:00,VALID,918.171,VALID,0,VALID,100,VALID,0.0169808,VALID,19.0933,VALID,16,VALID,0.141768,
2005-10-20, 00:13:00,VALID,918.16,VALID,0,VALID,100,VALID,0.0339617,VALID,19.1127,VALID,16,VALID,0.443824,
2005-10-20, 00:14:00,VALID,918.161,VALID,0,VALID,100,VALID,0,VALID,19.1194,VALID,17,VALID,0.576009,
2005-10-20, 00:15:00,VALID,918.158,VALID,0,VALID,100,VALID,0.0509425,VALID,19.1263,VALID,29,VALID,0.828125,
2005-10-20, 00:16:00,VALID,918.155,VALID,0,VALID,100,VALID,0.0169808,VALID,19.1134,VALID,30,VALID,0.726376,
2005-10-20, 00:17:00,VALID,918.152,VALID,0,VALID,100,VALID,0.0339617,VALID,19.1129,VALID,30,VALID,0.549352,
2005-10-20, 00:18:00,VALID,918.146,VALID,0,VALID,100,VALID,-0.0169808,VALID,19.1086,VALID,29,VALID,0.449777,
2005-10-20, 00:19:00,VALID,918.146,VALID,0,VALID,100,VALID,-0.0509425,VALID,19.1211,VALID,20,VALID,0.418445,
2005-10-20, 00:20:00,VALID,918.15,VALID,0,VALID,100,VALID,-0.0339617,VALID,19.0821,VALID,336,VALID,0.638317,
2005-10-20, 00:21:00,VALID,918.138,VALID,0,VALID,100,VALID,-0.0509425,VALID,19.0726,VALID,326,VALID,0.365916,
2005-10-20, 00:22:00,VALID,918.12,VALID,0,VALID,100,VALID,-0.0339617,VALID,19.089,VALID,326,VALID,0.0712209,
2005-10-20, 00:23:00,VALID,918.097,VALID,0,VALID,100,VALID,-0.0509425,VALID,19.1181,VALID,327,VALID,0.407138,
2005-10-20, 00:24:00,VALID,918.095,VALID,0,VALID,100,VALID,-0.0849042,VALID,19.0918,VALID,327,VALID,0.379192,
2005-10-20, 00:25:00,VALID,918.089,VALID,0,VALID,100,VALID,-0.0509425,VALID,19.1144,VALID,327,VALID,0.0594815,
2005-10-20, 00:26:00,VALID,918.072,VALID,0,VALID,100,VALID,-0.0679233,VALID,19.1337,VALID,327,VALID,0,
2005-10-20, 00:27:00,VALID,918.062,VALID,0.2,VALID,100,VALID,-0.0849042,VALID,19.1347,VALID,327,VALID,0,
2005-10-20, 00:28:00,VALID,918.042,VALID,0,VALID,100,VALID,-0.0679233,VALID,19.1342,VALID,327,VALID,0,
2005-10-20, 00:29:00,VALID,918.025,VALID,0,VALID,100,VALID,-0.0849042,VALID,19.1404,VALID,327,VALID,0,
2005-10-20, 00:30:00,VALID,918.002,VALID,0,VALID,100,VALID,-0.0339617,VALID,19.1439,VALID,329,VALID,0.0637718,
2005-10-20, 00:31:00,VALID,917.986,VALID,0,VALID,100,VALID,-0.0679233,VALID,19.1568,VALID,340,VALID,0.27782,
2005-10-20, 00:32:00,VALID,917.986,VALID,0,VALID,100,VALID,-0.0849042,VALID,19.1566,VALID,340,VALID,0.306504,
2005-10-20, 00:33:00,VALID,917.975,VALID,0,VALID,100,VALID,-0.0849042,VALID,19.1765,VALID,340,VALID,0.155692,
2005-10-20, 00:34:00,VALID,917.969,VALID,0,VALID,100,VALID,-0.0849042,VALID,19.1471,VALID,339,VALID,0.161519,
2005-10-20, 00:35:00,VALID,917.947,VALID,0,VALID,100,VALID,-0.101885,VALID,19.1215,VALID,339,VALID,0.0479403,
2005-10-20, 00:36:00,VALID,917.948,VALID,0,VALID,100,VALID,-0.0849042,VALID,19.1278,VALID,339,VALID,0.0806108,
2005-10-20, 00:37:00,VALID,917.92,VALID,0,VALID,100,VALID,-0.0679233,VALID,19.1409,VALID,340,VALID,0.087466,
2005-10-20, 00:38:00,VALID,917.922,VALID,0,VALID,100,VALID,-0.0849042,VALID,19.1536,VALID,344,VALID,0.0510538,
2005-10-20, 00:39:00,VALID,917.902,VALID,0,VALID,100,VALID,-0.0509425,VALID,19.1663,VALID,344,VALID,0.00111607,
2005-10-20, 00:40:00,VALID,917.891,VALID,0.2,VALID,100,VALID,-0.0679233,VALID,19.1961,VALID,344,VALID,0.177871,
2005-10-20, 00:41:00,VALID,917.883,VALID,0,VALID,100,VALID,-0.0679233,VALID,19.202,VALID,344,VALID,0.00625,
2005-10-20, 00:42:00,VALID,917.881,VALID,0,VALID,100,VALID,-0.0509425,VALID,19.2016,VALID,344,VALID,0,
2005-10-20, 00:43:00,VALID,917.874,VALID,0,VALID,100,VALID,-0.0169808,VALID,19.2083,VALID,344,VALID,0.00090843,
2005-10-20, 00:44:00,VALID,917.847,VALID,0,VALID,100,VALID,-0.0339617,VALID,19.2018,VALID,344,VALID,0.0122768,
2005-10-20, 00:45:00,VALID,917.848,VALID,0,VALID,100,VALID,-0.0339617,VALID,19.2078,VALID,344,VALID,0.114383,
2005-10-20, 00:46:00,VALID,917.851,VALID,0,VALID,100,VALID,-0.0679233,VALID,19.2309,VALID,344,VALID,0.00800305,
2005-10-20, 00:47:00,VALID,917.838,VALID,0,VALID,100,VALID,-0.0509425,VALID,19.218,VALID,13,VALID,0.472284,
2005-10-20, 00:48:00,VALID,917.839,VALID,0,VALID,100,VALID,-0.0169808,VALID,19.2117,VALID,18,VALID,0.300967,
2005-10-20, 00:49:00,VALID,917.824,VALID,0.2,VALID,100,VALID,-0.0679233,VALID,19.2475,VALID,18,VALID,0.0742188,
2005-10-20, 00:50:00,VALID,917.82,VALID,0,VALID,100,VALID,-0.0679233,VALID,19.2478,VALID,18,VALID,0,
2005-10-20, 00:51:00,VALID,917.821,VALID,0,VALID,100,VALID,-0.0679233,VALID,19.2251,VALID,17,VALID,0.258765,
2005-10-20, 00:52:00,VALID,917.828,VALID,0,VALID,100,VALID,-0.0339617,VALID,19.173,VALID,243,VALID,0.49043,
2005-10-20, 00:53:00,VALID,917.826,VALID,0,VALID,100,VALID,-0.0509425,VALID,19.1372,VALID,234,VALID,0.302507,
2005-10-20, 00:54:00,VALID,917.812,VALID,0,VALID,100,VALID,-0.0509425,VALID,19.1635,VALID,25,VALID,0.60992,
2005-10-20, 00:55:00,VALID,917.797,VALID,0,VALID,100,VALID,-0.0509425,VALID,19.1698,VALID,184,VALID,0.65968,
2005-10-20, 00:56:00,VALID,917.79,VALID,0.2,VALID,100,VALID,-0.0339617,VALID,19.1434,VALID,264,VALID,0.548633,
2005-10-20, 00:57:00,VALID,917.79,VALID,0,VALID,100,VALID,-0.0679233,VALID,19.1437,VALID,331,VALID,0.321456,
2005-10-20, 00:58:00,VALID,917.781,VALID,0,VALID,100,VALID,-0.0169808,VALID,19.1571,VALID,192,VALID,0.351918,
2005-10-20, 00:59:00,VALID,917.766,VALID,0,VALID,100,VALID,-0.0679233,VALID,19.1437,VALID,266,VALID,0.521984,
2005-10-20, 01:00:00,VALID,917.755,VALID,0,VALID,100,VALID,-0.0169808,VALID,19.1504,VALID,351,VALID,0.634673,
2005-10-20, 01:01:00,VALID,917.745,VALID,0,VALID,100,VALID,-0.0339617,VALID,19.1501,VALID,68,VALID,0.320694,
2005-10-20, 01:02:00,VALID,917.742,VALID,0,VALID,100,VALID,-0.0509425,VALID,19.1536,VALID,131,VALID,0.249455,
2005-10-20, 01:03:00,VALID,917.747,VALID,0,VALID,100,VALID,-0.101885,VALID,19.1626,VALID,51,VALID,0.340451,
2005-10-20, 01:04:00,VALID,917.761,VALID,0,VALID,100,VALID,-0.0339617,VALID,19.1983,VALID,2,VALID,0.161519,
2005-10-20, 01:05:00,VALID,917.755,VALID,0,VALID,100,VALID,-0.0509425,VALID,19.2083,VALID,46,VALID,0.231824,
2005-10-20, 01:06:00,VALID,917.756,VALID,0,VALID,100,VALID,-0.0509425,VALID,19.218,VALID,84,VALID,0.0577446,
2005-10-20, 01:07:00,VALID,917.739,VALID,0,VALID,100,VALID,0,VALID,19.2346,VALID,81,VALID,0.151708,
2005-10-20, 01:08:00,VALID,917.733,VALID,0,VALID,100,VALID,-0.0339617,VALID,19.2371,VALID,21,VALID,0.495561,
2005-10-20, 01:09:00,VALID,917.75,VALID,0,VALID,100,VALID,-0.0679233,VALID,19.2599,VALID,338,VALID,0.214164,
2005-10-20, 01:10:00,VALID,917.734,VALID,0,VALID,100,VALID,-0.101885,VALID,19.2376,VALID,250,VALID,0.669876,
2005-10-20, 01:11:00,VALID,917.716,VALID,0,VALID,100,VALID,-0.0509425,VALID,19.205,VALID,201,VALID,1.28106,
2005-10-20, 01:12:00,VALID,917.709,VALID,0,VALID,100,VALID,-0.0339617,VALID,19.1824,VALID,294,VALID,1.61736,
2005-10-20, 01:13:00,VALID,917.722,VALID,0,VALID,100,VALID,-0.0509425,VALID,19.1921,VALID,306,VALID,0.870206,
2005-10-20, 01:14:00,VALID,917.722,VALID,0,VALID,100,VALID,-0.0509425,VALID,19.205,VALID,76,VALID,0.426781,
2005-10-20, 01:15:00,VALID,917.713,VALID,0,VALID,100,VALID,-0.0679233,VALID,19.2184,VALID,45,VALID,0.615625,
2005-10-20, 01:16:00,VALID,917.719,VALID,0,VALID,100,VALID,-0.101885,VALID,19.2085,VALID,202,VALID,0.465183,
2005-10-20, 01:17:00,VALID,917.687,VALID,0,VALID,100,VALID,-0.0509425,VALID,19.2078,VALID,138,VALID,0.346946,
2005-10-20, 01:18:00,VALID,917.695,VALID,0,VALID,100,VALID,-0.0679233,VALID,19.2403,VALID,12,VALID,0.456364,
2005-10-20, 01:19:00,VALID,917.684,VALID,0,VALID,100,VALID,-0.0509425,VALID,19.2495,VALID,2,VALID,0.432776,
2005-10-20, 01:20:00,VALID,917.649,VALID,0,VALID,100,VALID,-0.0509425,VALID,19.2557,VALID,20,VALID,0.89566,
2005-10-20, 01:21:00,VALID,917.646,VALID,0,VALID,100,VALID,-0.0679233,VALID,19.2694,VALID,5,VALID,0.694949,
2005-10-20, 01:22:00,VALID,917.614,VALID,0,VALID,100,VALID,-0.0679233,VALID,19.2634,VALID,291,VALID,1.10213,
2005-10-20, 01:23:00,VALID,917.608,VALID,0,VALID,100,VALID,0,VALID,19.2463,VALID,309,VALID,0.458519,
2005-10-20, 01:24:00,VALID,917.584,VALID,0,VALID,100,VALID,-0.0339617,VALID,19.2627,VALID,25,VALID,0.589543,
2005-10-20, 01:25:00,VALID,917.565,VALID,0,VALID,100,VALID,0,VALID,19.2721,VALID,357,VALID,0.275213,
2005-10-20, 01:26:00,VALID,917.549,VALID,0,VALID,100,VALID,-0.0509425,VALID,19.2719,VALID,338,VALID,0.255664,
2005-10-20, 01:27:00,VALID,917.537,VALID,0,VALID,100,VALID,-0.0679233,VALID,19.2918,VALID,10,VALID,0.242535,
2005-10-20, 01:28:00,VALID,917.52,VALID,0,VALID,100,VALID,-0.0339617,VALID,19.2781,VALID,66,VALID,0.247396,
2005-10-20, 01:29:00,VALID,917.495,VALID,0,VALID,100,VALID,0,VALID,19.2853,VALID,68,VALID,0.345703,
2005-10-20, 01:30:00,VALID,917.465,VALID,0,VALID,100,VALID,-0.0339617,VALID,19.292,VALID,15,VALID,0.698103,
2005-10-20, 01:31:00,VALID,917.459,VALID,0,VALID,100,VALID,-0.0169808,VALID,19.2848,VALID,1,VALID,0.401634,
2005-10-20, 01:32:00,VALID,917.464,VALID,0,VALID,100,VALID,-0.0509425,VALID,19.2977,VALID,49,VALID,0.00436047,
2005-10-20, 01:33:00,VALID,917.472,VALID,0,VALID,100,VALID,0.0849042,VALID,19.3025,VALID,4,VALID,0.455221,
2005-10-20, 01:34:00,VALID,917.426,VALID,0,VALID,100,VALID,0.0849042,VALID,19.2841,VALID,5,VALID,0.940044,
2005-10-20, 01:35:00,VALID,917.433,VALID,0,VALID,100,VALID,0.0679233,VALID,19.3097,VALID,21,VALID,0.363377,
2005-10-20, 01:36:00,VALID,917.436,VALID,0.2,VALID,100,VALID,0.101885,VALID,19.3226,VALID,20,VALID,0.618823,
2005-10-20, 01:37:00,VALID,917.408,VALID,0,VALID,100,VALID,0.118866,VALID,19.3124,VALID,52,VALID,0.453804,
2005-10-20, 01:38:00,VALID,917.403,VALID,0,VALID,100,VALID,0.0849042,VALID,19.3094,VALID,10,VALID,1.17115,
2005-10-20, 01:39:00,VALID,917.366,VALID,0,VALID,100,VALID,0.0679233,VALID,19.2804,VALID,356,VALID,1.13991,
2005-10-20, 01:40:00,VALID,917.38,VALID,0,VALID,100,VALID,0.0679233,VALID,19.2804,VALID,204,VALID,0.580793,
2005-10-20, 01:41:00,VALID,917.352,VALID,0,VALID,100,VALID,0.101885,VALID,19.2771,VALID,172,VALID,0.6163,
2005-10-20, 01:42:00,VALID,917.355,VALID,0,VALID,100,VALID,0.0509425,VALID,19.2709,VALID,146,VALID,0.328125,
2005-10-20, 01:43:00,VALID,917.335,VALID,0,VALID,100,VALID,0.0679233,VALID,19.2836,VALID,9,VALID,0.62168,
2005-10-20, 01:44:00,VALID,917.324,VALID,0,VALID,100,VALID,0.0849042,VALID,19.2995,VALID,313,VALID,0.255766,
2005-10-20, 01:45:00,VALID,917.314,VALID,0,VALID,100,VALID,0.0849042,VALID,19.3092,VALID,194,VALID,0.19043,
2005-10-20, 01:46:00,VALID,917.257,VALID,0,VALID,100,VALID,0.0509425,VALID,19.2829,VALID,212,VALID,0.782158,
2005-10-20, 01:47:00,VALID,917.285,VALID,0,VALID,100,VALID,0.0849042,VALID,19.2997,VALID,347,VALID,1.34793,
2005-10-20, 01:48:00,VALID,917.255,VALID,0,VALID,100,VALID,-0.0339617,VALID,19.2818,VALID,24,VALID,1.99503,
2005-10-20, 01:49:00,VALID,917.242,VALID,0,VALID,100,VALID,-0.0169808,VALID,19.2786,VALID,13,VALID,2.54629,
2005-10-20, 01:50:00,VALID,917.254,VALID,0,VALID,100,VALID,-0.0169808,VALID,19.2523,VALID,120,VALID,0.799851,
2005-10-20, 01:51:00,VALID,917.213,VALID,0,VALID,100,VALID,-0.0169808,VALID,19.223,VALID,112,VALID,1.44847,
2005-10-20, 01:52:00,VALID,917.239,VALID,0,VALID,100,VALID,0,VALID,19.2071,VALID,7,VALID,1.5199,
2005-10-20, 01:53:00,VALID,917.238,VALID,0,VALID,100,VALID,-0.0169808,VALID,19.223,VALID,12,VALID,1.0434,
2005-10-20, 01:54:00,VALID,917.253,VALID,0,VALID,100,VALID,-0.0169808,VALID,19.2297,VALID,38,VALID,0.925327,
2005-10-20, 01:55:00,VALID,917.219,VALID,0,VALID,100,VALID,0,VALID,19.2267,VALID,110,VALID,0.917696,
2005-10-20, 01:56:00,VALID,917.194,VALID,0,VALID,100,VALID,0,VALID,19.2075,VALID,44,VALID,1.71915,
2005-10-20, 01:57:00,VALID,917.212,VALID,0,VALID,100,VALID,-0.0169808,VALID,19.1909,VALID,353,VALID,1.94289,
2005-10-20, 01:58:00,VALID,917.218,VALID,0,VALID,100,VALID,0,VALID,19.1879,VALID,13,VALID,1.93003,
2005-10-20, 01:59:00,VALID,917.19,VALID,0,VALID,100,VALID,-0.0169808,VALID,19.1681,VALID,25,VALID,2.45536,
2005-10-20, 02:00:00,VALID,917.225,VALID,0,VALID,100,VALID,0,VALID,19.1713,VALID,148,VALID,0.471657,
2005-10-20, 02:01:00,VALID,917.218,VALID,0,VALID,100,VALID,-0.0339617,VALID,19.1556,VALID,117,VALID,0.434524,
2005-10-20, 02:02:00,VALID,917.21,VALID,0,VALID,100,VALID,0,VALID,19.1621,VALID,36,VALID,1.08819,
2005-10-20, 02:03:00,VALID,917.216,VALID,0,VALID,100,VALID,-0.0169808,VALID,19.1522,VALID,30,VALID,0.846037,
2005-10-20, 02:04:00,VALID,917.23,VALID,0,VALID,100,VALID,-0.0509425,VALID,19.1462,VALID,210,VALID,0.773047,
2005-10-20, 02:05:00,VALID,917.201,VALID,0,VALID,100,VALID,-0.0849042,VALID,19.1402,VALID,316,VALID,1.43694,
2005-10-20, 02:06:00,VALID,917.189,VALID,0,VALID,100,VALID,-0.0339617,VALID,19.13,VALID,24,VALID,1.86757,
2005-10-20, 02:07:00,VALID,917.186,VALID,0,VALID,100,VALID,-0.0509425,VALID,19.1462,VALID,19,VALID,0.685096,
2005-10-20, 02:08:00,VALID,917.179,VALID,0,VALID,100,VALID,-0.0849042,VALID,19.1206,VALID,290,VALID,0.668056,
2005-10-20, 02:09:00,VALID,917.181,VALID,0,VALID,100,VALID,-0.0169808,VALID,19.0878,VALID,327,VALID,0.214935,
2005-10-20, 02:10:00,VALID,917.137,VALID,0,VALID,100,VALID,-0.0169808,VALID,19.0878,VALID,41,VALID,1.66887,
2005-10-20, 02:11:00,VALID,917.159,VALID,0,VALID,100,VALID,-0.0339617,VALID,19.0913,VALID,24,VALID,1.39755,
2005-10-20, 02:12:00,VALID,917.141,VALID,0,VALID,100,VALID,-0.0339617,VALID,19.0846,VALID,14,VALID,1.05868,
2005-10-20, 02:13:00,VALID,917.132,VALID,0,VALID,100,VALID,-0.0169808,VALID,19.0331,VALID,89,VALID,1.10135,
2005-10-20, 02:14:00,VALID,917.114,VALID,0,VALID,100,VALID,-0.0169808,VALID,18.9849,VALID,140,VALID,1.39007,
2005-10-20, 02:15:00,VALID,917.118,VALID,0,VALID,100,VALID,0,VALID,18.9849,VALID,26,VALID,1.13672,
2005-10-20, 02:16:00,VALID,917.114,VALID,0,VALID,100,VALID,-0.0169808,VALID,18.9847,VALID,217,VALID,0.579687,
2005-10-20, 02:17:00,VALID,917.082,VALID,0,VALID,100,VALID,-0.0509425,VALID,18.9944,VALID,341,VALID,1.32378,
2005-10-20, 02:18:00,VALID,917.063,VALID,0,VALID,100,VALID,0.0169808,VALID,18.9872,VALID,18,VALID,1.64583,
2005-10-20, 02:19:00,VALID,917.078,VALID,0,VALID,100,VALID,-0.0169808,VALID,18.9775,VALID,317,VALID,1.42336,
2005-10-20, 02:20:00,VALID,917.054,VALID,0,VALID,100,VALID,0,VALID,18.9169,VALID,312,VALID,1.14571,
2005-10-20, 02:21:00,VALID,917.023,VALID,0,VALID,100,VALID,-0.0169808,VALID,18.9102,VALID,23,VALID,1.98874,
2005-10-20, 02:22:00,VALID,917.059,VALID,0,VALID,100,VALID,0,VALID,18.9328,VALID,305,VALID,0.673735,
2005-10-20, 02:23:00,VALID,917.053,VALID,0,VALID,100,VALID,0.0169808,VALID,18.9482,VALID,3,VALID,0.759961,
2005-10-20, 02:24:00,VALID,917.044,VALID,0,VALID,100,VALID,-0.0169808,VALID,18.9261,VALID,344,VALID,0.972747,
2005-10-20, 02:25:00,VALID,917.049,VALID,0,VALID,100,VALID,0.0169808,VALID,18.9097,VALID,5,VALID,1.16406,
2005-10-20, 02:26:00,VALID,917.058,VALID,0,VALID,100,VALID,0.0169808,VALID,18.9134,VALID,53,VALID,0.921689,
2005-10-20, 02:27:00,VALID,917.045,VALID,0,VALID,100,VALID,0.0169808,VALID,18.9134,VALID,14,VALID,1.43902,
2005-10-20, 02:28:00,VALID,917.055,VALID,0,VALID,100,VALID,0.0169808,VALID,18.8908,VALID,57,VALID,0.446701,
2005-10-20, 02:29:00,VALID,917.06,VALID,0,VALID,100,VALID,0,VALID,18.8841,VALID,178,VALID,0.444169,
2005-10-20, 02:30:00,VALID,917.037,VALID,0,VALID,100,VALID,0.0169808,VALID,18.8906,VALID,153,VALID,0.244792,
2005-10-20, 02:31:00,VALID,917.034,VALID,0,VALID,100,VALID,0,VALID,18.907,VALID,21,VALID,0.579613,
2005-10-20, 02:32:00,VALID,917.006,VALID,0,VALID,100,VALID,0,VALID,18.9134,VALID,19,VALID,1.06827,
2005-10-20, 02:33:00,VALID,917.016,VALID,0,VALID,100,VALID,0,VALID,18.9231,VALID,14,VALID,0.768288,
2005-10-20, 02:34:00,VALID,916.989,VALID,0,VALID,100,VALID,0.0339617,VALID,18.9425,VALID,307,VALID,0.739826,
2005-10-20, 02:35:00,VALID,917.004,VALID,0,VALID,100,VALID,-0.0169808,VALID,18.9263,VALID,184,VALID,0.70258,
2005-10-20, 02:36:00,VALID,916.97,VALID,0,VALID,100,VALID,0,VALID,18.9007,VALID,112,VALID,0.618676,
2005-10-20, 02:37:00,VALID,916.978,VALID,0,VALID,100,VALID,0.0169808,VALID,18.8881,VALID,20,VALID,1.67097,
2005-10-20, 02:38:00,VALID,916.973,VALID,0,VALID,100,VALID,0.0169808,VALID,18.8744,VALID,21,VALID,1.0731,
2005-10-20, 02:39:00,VALID,916.995,VALID,0,VALID,100,VALID,0,VALID,18.8749,VALID,238,VALID,0.745833,
2005-10-20, 02:40:00,VALID,917.003,VALID,0,VALID,100,VALID,0,VALID,18.82,VALID,235,VALID,0.962843,
2005-10-20, 02:41:00,VALID,916.988,VALID,0,VALID,100,VALID,-0.0169808,VALID,18.817,VALID,327,VALID,1.03601,
2005-10-20, 02:42:00,VALID,916.972,VALID,0,VALID,100,VALID,0,VALID,18.8394,VALID,69,VALID,0.666797,
2005-10-20, 02:43:00,VALID,916.957,VALID,0,VALID,100,VALID,-0.0169808,VALID,18.8138,VALID,349,VALID,1.08441,
2005-10-20, 02:44:00,VALID,916.969,VALID,0,VALID,100,VALID,0.0169808,VALID,18.7743,VALID,220,VALID,1.20367,
2005-10-20, 02:45:00,VALID,916.957,VALID,0,VALID,100,VALID,-0.0169808,VALID,18.7716,VALID,341,VALID,1.18459,
2005-10-20, 02:46:00,VALID,916.991,VALID,0,VALID,100,VALID,0,VALID,18.8073,VALID,4,VALID,0.717882,
2005-10-20, 02:47:00,VALID,916.977,VALID,0,VALID,100,VALID,0,VALID,18.8235,VALID,18,VALID,1.03507,
2005-10-20, 02:48:00,VALID,916.985,VALID,0,VALID,100,VALID,-0.0169808,VALID,18.788,VALID,282,VALID,0.604768,
2005-10-20, 02:49:00,VALID,916.985,VALID,0,VALID,100,VALID,0,VALID,18.7653,VALID,270,VALID,0.860119,
2005-10-20, 02:50:00,VALID,916.989,VALID,0,VALID,100,VALID,-0.0169808,VALID,18.7783,VALID,325,VALID,0.623326,
2005-10-20, 02:51:00,VALID,916.989,VALID,0,VALID,100,VALID,0,VALID,18.778,VALID,345,VALID,0.498001,
2005-10-20, 02:52:00,VALID,917.01,VALID,0,VALID,100,VALID,0,VALID,18.7718,VALID,353,VALID,0.660633,
2005-10-20, 02:53:00,VALID,916.976,VALID,0,VALID,100,VALID,0,VALID,18.7686,VALID,18,VALID,0.444957,
2005-10-20, 02:54:00,VALID,916.969,VALID,0,VALID,100,VALID,0,VALID,18.7457,VALID,146,VALID,1.15078,
2005-10-20, 02:55:00,VALID,916.981,VALID,0,VALID,100,VALID,-0.0169808,VALID,18.739,VALID,48,VALID,0.85918,
2005-10-20, 02:56:00,VALID,916.964,VALID,0,VALID,100,VALID,0,VALID,18.7427,VALID,28,VALID,0.886889,
2005-10-20, 02:57:00,VALID,916.97,VALID,0,VALID,100,VALID,0,VALID,18.7236,VALID,288,VALID,1.15104,
2005-10-20, 02:58:00,VALID,916.953,VALID,0,VALID,100,VALID,0,VALID,18.7005,VALID,305,VALID,0.890067,
2005-10-20, 02:59:00,VALID,916.942,VALID,0,VALID,100,VALID,0,VALID,18.7038,VALID,249,VALID,1.21563,
2005-10-20, 03:00:00,VALID,916.911,VALID,0,VALID,100,VALID,0,VALID,18.6876,VALID,284,VALID,1.42656,
2005-10-20, 03:01:00,VALID,916.907,VALID,0,VALID,100,VALID,0,VALID,18.7008,VALID,340,VALID,0.584549,
2005-10-20, 03:02:00,VALID,916.893,VALID,0,VALID,100,VALID,-0.0169808,VALID,18.7139,VALID,309,VALID,0.85992,
2005-10-20, 03:03:00,VALID,916.88,VALID,0,VALID,100,VALID,0,VALID,18.6975,VALID,211,VALID,1.10227,
2005-10-20, 03:04:00,VALID,916.859,VALID,0,VALID,100,VALID,-0.0169808,VALID,18.6945,VALID,225,VALID,0.982329,
2005-10-20, 03:05:00,VALID,916.864,VALID,0,VALID,100,VALID,0,VALID,18.7038,VALID,235,VALID,0.737326,
2005-10-20, 03:06:00,VALID,916.851,VALID,0,VALID,100,VALID,0,VALID,18.7075,VALID,262,VALID,1.4593,
2005-10-20, 03:07:00,VALID,916.858,VALID,0,VALID,100,VALID,-0.0169808,VALID,18.7137,VALID,214,VALID,0.861421,
2005-10-20, 03:08:00,VALID,916.859,VALID,0,VALID,100,VALID,-0.0169808,VALID,18.7134,VALID,261,VALID,1.13717,
2005-10-20, 03:09:00,VALID,916.839,VALID,0,VALID,100,VALID,0,VALID,18.6943,VALID,305,VALID,1.72005,
2005-10-20, 03:10:00,VALID,916.806,VALID,0,VALID,100,VALID,-0.0169808,VALID,18.701,VALID,316,VALID,1.00763,
2005-10-20, 03:11:00,VALID,916.837,VALID,0,VALID,100,VALID,0.0169808,VALID,18.6973,VALID,331,VALID,1.14714,
2005-10-20, 03:12:00,VALID,916.815,VALID,0,VALID,100,VALID,0,VALID,18.7167,VALID,351,VALID,1.52126,
2005-10-20, 03:13:00,VALID,916.789,VALID,0,VALID,100,VALID,0,VALID,18.704,VALID,255,VALID,1.31113,
2005-10-20, 03:14:00,VALID,916.812,VALID,0,VALID,100,VALID,-0.0169808,VALID,18.704,VALID,237,VALID,1.37779,
2005-10-20, 03:15:00,VALID,916.805,VALID,0,VALID,100,VALID,0,VALID,18.7005,VALID,260,VALID,0.542683,
2005-10-20, 03:16:00,VALID,916.778,VALID,0,VALID,100,VALID,0,VALID,18.7266,VALID,319,VALID,0.739583,
2005-10-20, 03:17:00,VALID,916.788,VALID,0,VALID,100,VALID,0,VALID,18.7427,VALID,335,VALID,1.04271,
2005-10-20, 03:18:00,VALID,916.779,VALID,0,VALID,100,VALID,0,VALID,18.7199,VALID,350,VALID,1.37082,
2005-10-20, 03:19:00,VALID,916.796,VALID,0,VALID,100,VALID,0.0509425,VALID,18.7197,VALID,233,VALID,1.48224,
2005-10-20, 03:20:00,VALID,916.812,VALID,0,VALID,100,VALID,0.0339617,VALID,18.7035,VALID,245,VALID,0.601376,
2005-10-20, 03:21:00,VALID,916.823,VALID,0,VALID,100,VALID,0.0339617,VALID,18.7097,VALID,310,VALID,0.295945,
2005-10-20, 03:22:00,VALID,916.769,VALID,0,VALID,100,VALID,0,VALID,18.7199,VALID,12,VALID,1.20484,
2005-10-20, 03:23:00,VALID,916.775,VALID,0,VALID,100,VALID,0.0169808,VALID,18.6837,VALID,286,VALID,1.59847,
2005-10-20, 03:24:00,VALID,916.761,VALID,0,VALID,100,VALID,0,VALID,18.6878,VALID,247,VALID,0.686612,
2005-10-20, 03:25:00,VALID,916.748,VALID,0,VALID,100,VALID,0,VALID,18.7141,VALID,322,VALID,0.562678,
2005-10-20, 03:26:00,VALID,916.741,VALID,0,VALID,100,VALID,0,VALID,18.7102,VALID,303,VALID,1.13858,
2005-10-20, 03:27:00,VALID,916.725,VALID,0,VALID,100,VALID,0,VALID,18.7068,VALID,30,VALID,1.06686,
2005-10-20, 03:28:00,VALID,916.686,VALID,0,VALID,100,VALID,0,VALID,18.7261,VALID,34,VALID,0.911222,
2005-10-20, 03:29:00,VALID,916.71,VALID,0,VALID,100,VALID,0.0169808,VALID,18.7356,VALID,41,VALID,0.707122,
2005-10-20, 03:30:00,VALID,916.727,VALID,0,VALID,100,VALID,0,VALID,18.743,VALID,93,VALID,0.468205,
2005-10-20, 03:31:00,VALID,916.694,VALID,0,VALID,100,VALID,0.0169808,VALID,18.7162,VALID,5,VALID,1.2079,
2005-10-20, 03:32:00,VALID,916.706,VALID,0,VALID,100,VALID,0.0169808,VALID,18.7164,VALID,317,VALID,0.446039,
2005-10-20, 03:33:00,VALID,916.703,VALID,0,VALID,100,VALID,-0.0849042,VALID,18.7474,VALID,41,VALID,0.939135,
2005-10-20, 03:34:00,VALID,916.693,VALID,0,VALID,100,VALID,-0.118866,VALID,18.7474,VALID,35,VALID,0.898438,
2005-10-20, 03:35:00,VALID,916.694,VALID,0,VALID,100,VALID,-0.0849042,VALID,18.7405,VALID,21,VALID,0.459121,
2005-10-20, 03:36:00,VALID,916.7,VALID,0,VALID,100,VALID,-0.101885,VALID,18.7308,VALID,204,VALID,0.829459,
2005-10-20, 03:37:00,VALID,916.693,VALID,0,VALID,100,VALID,-0.0679233,VALID,18.7241,VALID,71,VALID,1.73917,
2005-10-20, 03:38:00,VALID,916.721,VALID,0,VALID,100,VALID,-0.0849042,VALID,18.7469,VALID,15,VALID,0.958841,
2005-10-20, 03:39:00,VALID,916.734,VALID,0,VALID,100,VALID,-0.0849042,VALID,18.7407,VALID,118,VALID,0.542225,
2005-10-20, 03:40:00,VALID,916.742,VALID,0,VALID,100,VALID,-0.0849042,VALID,18.7472,VALID,333,VALID,1.1052,
2005-10-20, 03:41:00,VALID,916.753,VALID,0,VALID,100,VALID,-0.0679233,VALID,18.7638,VALID,170,VALID,0.749637,
2005-10-20, 03:42:00,VALID,916.706,VALID,0,VALID,100,VALID,-0.101885,VALID,18.728,VALID,236,VALID,1.20446,
2005-10-20, 03:43:00,VALID,916.73,VALID,0,VALID,100,VALID,-0.0849042,VALID,18.7213,VALID,71,VALID,0.603016,